PEGASUS DEB, 39922

Orbit data source: Space-Track

PEGASUS DEB, 39922 is space debris in LEO originally from a launch on Thu, 19 May 1994 UTC launched from the Air Force Western Test Range (AFWTR). Debris objects in space refer to the collection of defunct objects orbiting the Earth. Examples of debris include non-operational satellites, rocket bodies, and fragments generated from explosions, collisions, or faulty payload assembly.

Loading next visibility...
Identifier
39922, 1994-029AFV
Orbit
LEO
Country
Flag of USUS
Related business
Manufacturer
Unknown
Mission
Spacecraft
Bus & Motor
Unknown
Mass
Unknown
Launch date (UTC)
1994-05-19 (32 years ago)
Launch vehicle
Unknown
Launch site
Air Force Western Test Range (AFWTR)
Object type
Payload
Rocket body
Debris
Shape & HBR
Unknown shape, 0.1 m
Radar Cross Section
Small (<0.1 m²)

Expand to show TLE details & history
Last TLE update: 6 days ago

TLE from 6 days ago
0 PEGASUS DEB
1 39922U 94029AFV 26223.40855318  .00003586  00000-0  29514-3 0  9994
2 39922  81.5833 275.2028 0106176 151.4890 209.2195 14.94456996653054
Epoch: 2026-08-11T09:48Z
TLE epoch observation values (Epoch: 2026-08-11T09:48:18.994Z)
Latitude
-0°
Longitude
168.24639°
Altitude
651.799 km
Speed
7.497 km/s
True Right ascension
18h 20m 48s
True Declination
0° 00' 00"
Sunlit
Object was in full shadow at epoch
Visualization orbit readout
Latitude
Unknown
Longitude
Unknown
Altitude
Unknown
Speed
Unknown
Apparent Right ascension
Unknown
Apparent Declination
Unknown
Sunlit
N/A
Visualization observer readout
Local Sidereal Time
16:35:30
Azimuth
Unknown
Elevation
Unknown
Doppler factor
Unknown
Orbital elements
Apogee altitude
654.994 km
Perigee altitude
507.213 km
Semi-major axis
6,959.241 km
Eccentricity
0.01062
Inclination
81.5833°
RAAN
275.2028°
Arg. of periapsis
151.489°
True anomaly
208.63238°
Mean anomaly
209.2195°
Eccentric anomaly
208.92526°
Mean motion
3.73853 °/min
Orbital period
96.29 mins
BSTAR
0.00029514
Loading maneuver chart data...
Computing Atmospheric mass density...

Documentation

Showing up to 5 results
|